When you browse on this site, cookies collect data to enhance your experience and personalize the content and advertising you see.
Visit our Privacy Policy to learn more. By continuing to use the site, you agree to this use of cookies and data.
  • In Hungary
  • List of Countries
  • For 7 days
  • Water Temperature
  • Satellite Maps
  • Weather Map
  • News
  • Weather Widgets
  • user-avatar
    Login

    Hourly Weather Hrestivka (Kirovckoe)

    Today, 19 February, Tuesday

    Time Temperature Precipitation Wind Pressure Humidity
    00:00 -7°C° 0 mm 3 mps 744 mmHg 88%
    01:00 -8°C° 0 mm 3 mps 744 mmHg 89%
    02:00 -8°C° 0 mm 3 mps 745 mmHg 90%
    03:00 -9°C° 0 mm 2 mps 744 mmHg 92%
    04:00 -9°C° 0 mm 2 mps 745 mmHg 92%
    05:00 -10°C° 0 mm 2 mps 745 mmHg 92%
    06:00 -10°C° 0 mm 2 mps 745 mmHg 93%
    07:00 -9°C° 0 mm 2 mps 746 mmHg 92%
    08:00 -9°C° 0 mm 2 mps 746 mmHg 92%
    09:00 -8°C° 0 mm 2 mps 747 mmHg 91%
    10:00 -7°C° 0 mm 2 mps 747 mmHg 88%
    11:00 -6°C° 0 mm 2 mps 747 mmHg 85%
    12:00 -5°C° 0 mm 2 mps 748 mmHg 83%
    13:00 -2°C° 0 mm 1 mps 748 mmHg 81%
    14:00 -2°C° 0 mm 1 mps 748 mmHg 79%
    15:00 -1°C° 0 mm 1 mps 748 mmHg 78%
    16:00 -2°C° 0 mm 1 mps 748 mmHg 80%
    17:00 -3°C° 0 mm 1 mps 747 mmHg 82%
    18:00 -6°C° 0 mm 1 mps 747 mmHg 85%
    19:00 -6°C° 0 mm 1 mps 747 mmHg 84%
    20:00 -6°C° 0 mm 1 mps 747 mmHg 83%
    21:00 -7°C° 0 mm 2 mps 747 mmHg 82%
    22:00 -7°C° 0 mm 2 mps 747 mmHg 81%
    23:00 -7°C° 0 mm 2 mps 746 mmHg 81%

    Tomorrow, 20 February, Wednesday

    Time Temperature Precipitation Wind Pressure Humidity
    00:00 -7°C° 0 mm 2 mps 746 mmHg 81%
    01:00 -7°C° 0 mm 2 mps 746 mmHg 80%
    02:00 -7°C° 0 mm 2 mps 745 mmHg 80%
    03:00 -7°C° 0 mm 2 mps 745 mmHg 79%
    04:00 -8°C° 0 mm 3 mps 745 mmHg 79%
    05:00 -8°C° 0 mm 3 mps 744 mmHg 79%
    06:00 -8°C° 0 mm 3 mps 744 mmHg 79%
    07:00 -8°C° 0 mm 3 mps 744 mmHg 80%
    08:00 -7°C° 0 mm 3 mps 743 mmHg 80%
    09:00 -6°C° 0 mm 3 mps 743 mmHg 81%
    10:00 -5°C° 0 mm 4 mps 743 mmHg 81%
    11:00 -3°C° 0 mm 4 mps 742 mmHg 81%
    12:00 -2°C° 0 mm 4 mps 742 mmHg 80%
    13:00 -1°C° 0 mm 4 mps 742 mmHg 81%
    14:00 -1°C° 0 mm 4 mps 741 mmHg 82%
    15:00 0°C° 0 mm 4 mps 741 mmHg 83%
    16:00 -1°C° 0 mm 4 mps 740 mmHg 81%
    17:00 -2°C° 0 mm 4 mps 740 mmHg 80%
    18:00 -3°C° 0 mm 4 mps 740 mmHg 78%
    19:00 -3°C° 0 mm 4 mps 740 mmHg 79%
    20:00 -3°C° 0 mm 4 mps 739 mmHg 81%
    21:00 -3°C° 0 mm 4 mps 739 mmHg 82%
    22:00 -3°C° 0 mm 4 mps 739 mmHg 83%
    23:00 -2°C° 0 mm 4 mps 739 mmHg 85%

    Day after tomorrow, 21 February, Thursday

    Time Temperature Precipitation Wind Pressure Humidity
    00:00 -2°C° 0 mm 4 mps 738 mmHg 87%
    01:00 -1°C° 0 mm 4 mps 738 mmHg 88%
    02:00 -1°C° 0 mm 4 mps 738 mmHg 89%
    03:00 -1°C° 0 mm 4 mps 738 mmHg 91%
    04:00 -1°C° 0.2 mm 4 mps 737 mmHg 93%
    05:00 -1°C° 0.2 mm 4 mps 737 mmHg 95%
    06:00 -1°C° 0.2 mm 4 mps 737 mmHg 97%
    07:00 -1°C° 0 mm 4 mps 737 mmHg 97%
    08:00 -1°C° 0 mm 4 mps 737 mmHg 96%
    09:00 -1°C° 0 mm 4 mps 736 mmHg 95%
    10:00 -1°C° 0 mm 5 mps 736 mmHg 93%
    11:00 0°C° 0 mm 5 mps 736 mmHg 92%
    12:00 0°C° 0 mm 5 mps 736 mmHg 90%
    13:00 0°C° 0.2 mm 5 mps 736 mmHg 90%
    14:00 -1°C° 0.2 mm 6 mps 736 mmHg 89%
    15:00 -1°C° 0.2 mm 6 mps 735 mmHg 89%
    16:00 -3°C° 0.1 mm 6 mps 736 mmHg 85%
    17:00 -4°C° 0.1 mm 6 mps 736 mmHg 80%
    18:00 -5°C° 0.1 mm 6 mps 736 mmHg 76%
    19:00 -5°C° 0.1 mm 6 mps 737 mmHg 78%
    20:00 -6°C° 0.1 mm 5 mps 737 mmHg 79%
    21:00 -7°C° 0.1 mm 5 mps 738 mmHg 80%
    22:00 -7°C° 0 mm 4 mps 738 mmHg 80%
    23:00 -8°C° 0 mm 4 mps 738 mmHg 80%

    22 February, Friday

    Time Temperature Precipitation Wind Pressure Humidity
    00:00 -8°C° 0 mm 4 mps 738 mmHg 79%
    01:00 -9°C° 0 mm 4 mps 739 mmHg 79%
    02:00 -9°C° 0 mm 4 mps 739 mmHg 80%
    03:00 -9°C° 0 mm 4 mps 739 mmHg 80%
    04:00 -9°C° 0 mm 4 mps 739 mmHg 80%
    05:00 -9°C° 0 mm 4 mps 738 mmHg 80%
    06:00 -9°C° 0 mm 4 mps 738 mmHg 80%
    07:00 -9°C° 0 mm 4 mps 738 mmHg 80%
    08:00 -8°C° 0 mm 4 mps 739 mmHg 80%
    09:00 -8°C° 0 mm 4 mps 739 mmHg 80%
    10:00 -7°C° 0 mm 4 mps 739 mmHg 78%
    11:00 -7°C° 0 mm 4 mps 739 mmHg 77%
    12:00 -7°C° 0 mm 4 mps 739 mmHg 75%
    13:00 -7°C° 0.2 mm 4 mps 738 mmHg 79%
    14:00 -6°C° 0.2 mm 3 mps 738 mmHg 82%
    15:00 -6°C° 0.2 mm 3 mps 738 mmHg 85%
    16:00 -8°C° 0.2 mm 4 mps 738 mmHg 86%
    17:00 -8°C° 0.2 mm 4 mps 738 mmHg 86%
    18:00 -10°C° 0.2 mm 5 mps 739 mmHg 87%
    19:00 -11°C° 0.1 mm 5 mps 739 mmHg 85%
    20:00 -12°C° 0.1 mm 6 mps 740 mmHg 82%
    21:00 -14°C° 0.1 mm 6 mps 740 mmHg 80%
    22:00 -14°C° 0 mm 6 mps 740 mmHg 80%
    23:00 -15°C° 0 mm 6 mps 741 mmHg 81%

    23 February, Saturday

    Time Temperature Precipitation Wind Pressure Humidity
    00:00 -14°C° 0 mm 5 mps 741 mmHg 81%
    01:00 -14°C° 0 mm 5 mps 741 mmHg 82%
    02:00 -15°C° 0 mm 5 mps 742 mmHg 84%
    03:00 -15°C° 0 mm 5 mps 742 mmHg 86%
    04:00 -15°C° 0 mm 5 mps 742 mmHg 87%
    05:00 -15°C° 0 mm 5 mps 742 mmHg 87%
    06:00 -15°C° 0 mm 5 mps 742 mmHg 88%
    07:00 -15°C° 0 mm 5 mps 743 mmHg 88%
    08:00 -15°C° 0 mm 5 mps 743 mmHg 88%
    09:00 -15°C° 0 mm 5 mps 744 mmHg 87%
    10:00 -15°C° 0 mm 5 mps 744 mmHg 85%
    11:00 -14°C° 0 mm 5 mps 744 mmHg 83%
    12:00 -13°C° 0 mm 5 mps 744 mmHg 81%
    13:00 -13°C° 0 mm 5 mps 744 mmHg 81%
    14:00 -13°C° 0 mm 5 mps 745 mmHg 80%
    15:00 -13°C° 0 mm 5 mps 745 mmHg 80%
    16:00 -12°C° 0 mm 4 mps 745 mmHg 82%
    17:00 -14°C° 0 mm 4 mps 745 mmHg 84%
    18:00 -14°C° 0 mm 4 mps 745 mmHg 86%
    19:00 -15°C° 0 mm 4 mps 745 mmHg 86%
    20:00 -15°C° 0 mm 4 mps 746 mmHg 87%
    21:00 -14°C° 0 mm 3 mps 746 mmHg 88%
    22:00 -15°C° 0 mm 3 mps 746 mmHg 89%
    23:00 -15°C° 0 mm 3 mps 746 mmHg 89%

    24 February, Sunday

    Time Temperature Precipitation Wind Pressure Humidity
    00:00 -15°C° 0 mm 3 mps 746 mmHg 90%
    01:00 -15°C° 0 mm 3 mps 746 mmHg 90%
    02:00 -15°C° 0 mm 3 mps 746 mmHg 91%
    03:00 -15°C° 0 mm 3 mps 746 mmHg 91%
    04:00 -15°C° 0 mm 3 mps 746 mmHg 92%
    05:00 -15°C° 0 mm 3 mps 746 mmHg 92%
    06:00 -15°C° 0 mm 3 mps 745 mmHg 93%
    07:00 -15°C° 0 mm 3 mps 746 mmHg 92%
    08:00 -15°C° 0 mm 3 mps 746 mmHg 92%
    09:00 -16°C° 0 mm 4 mps 746 mmHg 91%
    10:00 -15°C° 0 mm 4 mps 746 mmHg 89%
    11:00 -14°C° 0 mm 4 mps 746 mmHg 87%
    12:00 -12°C° 0 mm 4 mps 746 mmHg 85%
    13:00 -12°C° 0 mm 4 mps 746 mmHg 84%
    14:00 -12°C° 0 mm 3 mps 746 mmHg 83%
    15:00 -10°C° 0 mm 3 mps 746 mmHg 82%
    16:00 -12°C° 0 mm 3 mps 746 mmHg 83%
    17:00 -12°C° 0 mm 3 mps 746 mmHg 84%
    18:00 -12°C° 0 mm 3 mps 746 mmHg 85%
    19:00 -13°C° 0 mm 3 mps 746 mmHg 86%
    20:00 -13°C° 0 mm 3 mps 746 mmHg 88%
    21:00 -13°C° 0 mm 3 mps 746 mmHg 89%
    22:00 -13°C° 0 mm 3 mps 746 mmHg 90%
    23:00 -13°C° 0 mm 3 mps 746 mmHg 91%
    Show more